Temp
5 5 5 5 5 5 5 6 6 6 6 6 7 7 7 7 8 8 8 8 8 9 9 9 9 9 10 10 10 9 10 11 10 10 9 9 9 9 9 9 9 9 9 9 9
4 5 5 5 5 5 5 5 5 5 6 6 6 6 7 7 7 7 8 8 8 8 9 9 9 9 9 10 10 9 10 10 9 9 9 9 9 9 9 9 9 9 8 8 8
4 4 4 4 4 4 5 5 5 5 5 6 6 6 6 6 6 7 7 7 8 8 8 8 8 8 9 9 9 9 9 9 9 9 9 8 8 8 7 8 8 8 8 8 8
3 4 4 4 4 4 4 4 4 5 5 5 6 6 6 6 5 6 6 7 7 7 7 7 7 8 8 8 9 8 9 8 8 9 8 7 7 8 8 8 8 8 8 8 8
3 3 3 4 4 4 4 4 4 4 5 5 5 6 6 6 6 6 6 6 7 7 7 7 7 7 7 8 8 8 8 8 8 8 8 8 8 8 7 8 8 8 8 7 7
3 3 3 3 3 3 3 4 4 4 4 5 5 5 5 6 6 6 6 6 6 6 7 7 7 7 7 7 7 8 8 8 8 7 7 7 7 7 7 8 7 7 7 7 6
3 3 2 2 2 3 2 3 3 3 4 4 4 5 5 5 6 5 6 6 6 6 6 6 6 6 7 6 7 7 7 7 8 7 6 6 7 6 7 7 7 7 6 6 6
2 2 2 2 2 2 2 3 3 3 3 3 4 4 5 5 5 5 5 5 6 5 5 6 6 6 6 6 6 7 7 7 7 7 6 6 8 7 7 6 6 6 6 6 5
1 1 1 2 2 2 2 2 2 2 3 3 3 3 4 4 4 4 5 5 5 5 5 5 5 5 6 5 5 6 8 8 7 7 6 6 7 7 7 6 6 5 5 5 5
0 0 1 1 1 1 2 1 1 1 2 3 3 3 4 4 4 4 4 4 4 4 4 4 4 4 4 5 7 8 7 7 7 6 6 5 6 6 6 6 6 5 5 5 4
1 1 2 1 1 1 0 1 1 2 2 2 2 3 4 4 4 4 4 4 4 4 4 4 3 4 5 5 5 5 6 7 7 5 6 5 5 6 6 6 6 5 5 5 4
0 1 1 1 1 1 1 0 0 0 1 3 2 4 3 3 4 4 4 4 4 4 3 4 4 4 4 4 5 4 5 6 6 5 5 4 4 5 5 5 5 5 5 5 5
-0 -0 0 0 1 1 1 1 -0 -1 -0 2 3 4 4 3 5 5 4 4 4 3 3 3 4 5 4 4 4 4 5 6 6 4 5 4 4 5 5 5 5 5 5 4 4
-1 -1 -0 -0 0 0 0 0 -0 -1 -2 -0 3 3 4 4 4 6 5 4 3 3 3 2 3 4 4 3 4 5 4 4 4 4 7 5 9 5 5 5 5 5 5 5 4
-2 -2 -2 -1 -1 -1 -0 -1 -1 -1 -0 2 1 2 4 4 3 6 5 3 2 2 3 3 4 5 3 5 4 5 4 4 4 4 4 5 5 8 4 5 6 6 5 5 4
-2 -2 -2 -2 -1 -1 -1 -1 -2 -3 -1 0 1 2 3 4 3 4 4 3 2 2 1 3 3 3 3 3 4 3 3 3 3 3 5 5 5 8 4 6 5 6 5 4 4
-3 -2 -2 -2 -2 -2 -2 -2 -4 -3 -0 1 0 2 3 2 3 3 3 3 2 1 2 2 2 2 3 3 3 3 3 5 5 5 7 4 5 7 4 5 5 5 5 4 3
-4 -3 -2 -3 -2 -3 -4 -4 -4 -2 -1 0 -1 -0 -0 1 2 2 2 1 1 2 4 3 4 2 3 3 3 3 3 6 6 8 8 1 4 5 4 5 5 4 4 4 3
-6 -6 -5 -3 -3 -5 -5 -6 -4 -1 -2 -1 -1 -1 0 0 1 1 1 1 1 1 2 3 4 3 2 2 2 2 2 4 4 2 3 6 5 4 4 4 4 3 3 3 2
-8 -7 -6 -5 -7 -7 -6 -6 -5 -3 -2 -2 -1 -1 0 0 -0 -0 1 1 1 1 2 2 2 2 2 2 2 2 2 1 2 3 4 6 6 6 4 4 3 3 2 2 1
-9 -8 -7 -7 -7 -8 -8 -7 -6 -5 -4 -4 -3 -2 -2 -0 -1 -1 1 1 1 2 2 1 1 1 1 1 2 1 1 1 3 3 5 6 7 4 3 3 3 2 2 1 0
-9 -9 -8 -8 -8 -8 -8 -6 -7 -5 -5 -5 -4 -3 -2 -2 -2 -2 -2 -0 0 0 1 1 -0 0 1 0 1 1 1 1 2 2 0 2 4 3 2 3 2 1 1 0 -0
-9 -9 -9 -8 -8 -8 -7 -7 -6 -7 -6 -5 -5 -5 -4 -3 -3 -2 -1 -1 -2 -1 0 0 -1 -1 0 -1 -2 -0 -0 0 0 1 1 2 3 2 2 2 1 1 0 -0 -1
-10 -10 -9 -9 -8 -8 -8 -8 -8 -6 -7 -6 -5 -5 -4 -4 -4 -3 -2 -2 -2 -1 -1 -1 -0 -0 1 2 1 -2 -1 -1 -1 -1 1 1 1 2 1 1 1 1 0 -1 -1
-11 -10 -10 -9 -8 -9 -8 -8 -8 -8 -7 -7 -6 -5 -4 -4 -4 -3 -3 -3 -3 -2 -3 -3 -3 -2 -2 -2 -1 -3 -2 -1 -2 -0 -1 -0 -2 0 1 1 1 0 -0 -1 -1
-12 -11 -10 -9 -10 -9 -8 -8 -8 -7 -7 -7 -7 -5 -5 -5 -4 -4 -4 -4 -4 -3 -4 -4 -4 -4 -3 -2 -3 -3 -4 -2 -2 -2 -1 -1 0 1 1 1 0 0 -1 -1 -2
-11 -10 -11 -10 -10 -10 -10 -9 -8 -8 -8 -7 -7 -7 -6 -6 -5 -5 -5 -5 -5 -5 -5 -5 -5 -5 -4 -4 -4 -4 -2 -3 -2 -1 -2 -1 -0 0 0 0 -0 -1 -1 -2 -2
Height
3161 3162 3163 3164 3165 3166 3166 3166 3166 3166 3166 3165 3165 3164 3163 3162 3161 3160 3159 3159 3158 3158 3159 3158 3158 3158 3158 3158 3159 3160 3163 3162 3164 3165 3166 3165 3166 3168 3169 3170 3171 3171 3172 3174 3174
3159 3160 3160 3161 3161 3163 3164 3164 3164 3164 3164 3163 3162 3161 3161 3160 3158 3157 3157 3155 3155 3155 3157 3156 3156 3156 3157 3156 3157 3159 3161 3161 3161 3163 3164 3163 3165 3165 3167 3167 3169 3170 3171 3172 3172
3155 3156 3156 3157 3157 3158 3159 3160 3161 3161 3160 3160 3159 3158 3157 3157 3155 3153 3152 3152 3151 3152 3153 3154 3154 3155 3155 3154 3155 3155 3160 3157 3157 3158 3160 3162 3162 3163 3165 3165 3166 3168 3169 3170 3170
3149 3151 3152 3153 3154 3154 3155 3155 3156 3156 3157 3156 3156 3156 3154 3155 3157 3151 3150 3150 3149 3149 3150 3151 3152 3153 3153 3153 3152 3154 3153 3154 3155 3155 3157 3160 3158 3159 3161 3162 3163 3164 3165 3165 3165
3144 3146 3147 3147 3148 3150 3151 3151 3151 3151 3152 3153 3152 3152 3152 3152 3150 3148 3147 3146 3146 3147 3147 3148 3149 3151 3151 3150 3150 3150 3150 3151 3152 3153 3154 3155 3156 3156 3157 3158 3159 3159 3159 3159 3160
3139 3141 3142 3142 3143 3144 3145 3147 3146 3146 3147 3148 3148 3147 3147 3147 3145 3143 3143 3143 3143 3143 3143 3144 3145 3146 3147 3147 3148 3146 3147 3148 3149 3150 3150 3152 3152 3153 3152 3153 3154 3155 3155 3156 3157
3132 3134 3136 3136 3138 3140 3140 3142 3142 3142 3142 3143 3143 3142 3141 3141 3139 3139 3138 3138 3139 3138 3139 3139 3141 3143 3142 3144 3143 3143 3145 3144 3144 3146 3147 3147 3148 3146 3148 3149 3150 3151 3151 3152 3153
3126 3128 3130 3132 3133 3134 3135 3136 3136 3137 3137 3137 3138 3137 3135 3135 3134 3134 3134 3134 3134 3134 3134 3135 3137 3138 3139 3140 3140 3140 3141 3143 3141 3141 3141 3143 3145 3141 3143 3144 3146 3147 3147 3148 3149
3117 3121 3124 3125 3126 3128 3129 3129 3130 3132 3133 3133 3134 3134 3132 3130 3131 3131 3131 3131 3131 3131 3130 3131 3134 3134 3135 3137 3138 3137 3137 3138 3138 3137 3137 3138 3141 3136 3137 3138 3140 3142 3143 3144 3145
3111 3113 3117 3119 3121 3122 3123 3124 3125 3126 3128 3128 3129 3132 3130 3129 3127 3127 3128 3128 3128 3128 3129 3128 3128 3129 3130 3134 3131 3132 3133 3133 3134 3133 3133 3134 3135 3132 3133 3135 3136 3137 3137 3139 3140
3103 3106 3109 3112 3114 3116 3117 3118 3122 3121 3120 3123 3124 3124 3125 3126 3125 3125 3125 3125 3125 3126 3126 3125 3125 3124 3128 3128 3129 3128 3129 3129 3130 3128 3130 3130 3131 3127 3129 3131 3132 3133 3134 3135 3136
3095 3098 3100 3103 3106 3108 3110 3114 3114 3116 3110 3112 3114 3113 3117 3118 3118 3120 3122 3123 3121 3122 3123 3122 3119 3122 3121 3120 3122 3123 3125 3126 3126 3123 3127 3124 3124 3122 3123 3125 3127 3128 3129 3130 3130
3087 3089 3094 3097 3098 3101 3103 3107 3110 3110 3104 3098 3104 3105 3108 3109 3109 3113 3115 3116 3116 3117 3117 3118 3118 3116 3117 3117 3117 3118 3120 3123 3125 3123 3122 3122 3120 3115 3116 3118 3120 3121 3122 3122 3123
3079 3083 3087 3089 3094 3095 3097 3102 3106 3108 3102 3094 3092 3088 3095 3098 3094 3105 3105 3110 3108 3110 3114 3113 3113 3111 3113 3114 3116 3117 3116 3118 3121 3122 3121 3119 3111 3108 3108 3111 3112 3113 3114 3115 3115
3072 3076 3081 3083 3084 3089 3092 3095 3102 3108 3103 3085 3081 3081 3086 3090 3089 3092 3093 3097 3101 3104 3107 3106 3104 3105 3107 3110 3112 3116 3113 3115 3117 3118 3118 3116 3115 3103 3103 3103 3104 3105 3107 3106 3107
3065 3068 3074 3076 3080 3083 3085 3090 3098 3106 3087 3082 3077 3078 3081 3083 3085 3087 3086 3090 3095 3101 3099 3103 3101 3101 3103 3105 3107 3108 3111 3113 3114 3117 3110 3109 3110 3095 3093 3097 3099 3100 3100 3101 3102
3054 3059 3063 3068 3072 3076 3079 3085 3091 3088 3079 3078 3075 3077 3077 3079 3080 3082 3082 3081 3087 3093 3093 3096 3095 3097 3098 3100 3102 3105 3108 3108 3109 3109 3099 3099 3102 3091 3090 3092 3094 3094 3094 3095 3096
3043 3048 3053 3058 3062 3066 3072 3077 3075 3070 3070 3071 3073 3072 3074 3075 3076 3077 3077 3078 3080 3085 3087 3089 3090 3089 3088 3093 3095 3096 3101 3095 3094 3091 3091 3095 3089 3085 3085 3085 3087 3089 3090 3090 3091
3035 3040 3041 3048 3051 3058 3064 3061 3060 3060 3063 3069 3072 3071 3071 3070 3073 3074 3073 3073 3075 3076 3081 3082 3083 3080 3082 3087 3091 3093 3092 3097 3096 3094 3093 3083 3081 3079 3079 3080 3081 3083 3084 3086 3087
3027 3030 3035 3040 3045 3047 3050 3049 3050 3054 3062 3065 3066 3066 3066 3069 3068 3069 3069 3067 3068 3070 3075 3076 3079 3077 3078 3082 3083 3085 3088 3090 3091 3088 3082 3073 3074 3074 3073 3075 3076 3077 3080 3080 3082
3022 3023 3028 3034 3038 3037 3036 3036 3041 3047 3054 3059 3058 3058 3058 3064 3063 3063 3062 3064 3065 3065 3068 3070 3072 3073 3073 3072 3075 3077 3078 3079 3081 3079 3072 3068 3067 3065 3070 3070 3072 3074 3075 3075 3076
3014 3016 3019 3024 3027 3025 3025 3028 3036 3036 3046 3045 3050 3051 3052 3057 3057 3057 3054 3060 3061 3062 3061 3063 3065 3066 3067 3065 3066 3068 3070 3073 3071 3071 3072 3069 3061 3062 3066 3066 3068 3068 3069 3070 3071
3005 3008 3012 3016 3013 3015 3020 3022 3025 3030 3033 3039 3040 3043 3047 3049 3051 3049 3050 3053 3053 3057 3057 3058 3060 3064 3059 3061 3059 3059 3060 3063 3065 3066 3061 3064 3054 3058 3060 3062 3062 3062 3063 3064 3064
3000 3001 3004 3005 3006 3007 3009 3014 3017 3020 3023 3028 3031 3035 3038 3039 3042 3040 3043 3046 3046 3048 3050 3052 3051 3051 3049 3052 3052 3050 3051 3054 3058 3058 3050 3052 3053 3057 3056 3057 3056 3057 3057 3056 3056
2989 2991 2996 2995 2997 2998 3003 3004 3009 3012 3017 3021 3022 3024 3028 3032 3033 3034 3038 3039 3038 3039 3040 3040 3041 3043 3043 3043 3047 3045 3047 3047 3046 3046 3048 3039 3046 3045 3051 3049 3051 3050 3049 3049 3048
2981 2984 2986 2989 2992 2992 2994 2993 3000 3006 3011 3011 3014 3017 3021 3021 3024 3026 3028 3029 3029 3030 3032 3034 3031 3032 3032 3034 3036 3038 3039 3035 3038 3041 3038 3034 3036 3042 3042 3040 3042 3042 3042 3041 3041
2972 2976 2979 2980 2983 2987 2986 2988 2991 2998 3002 3004 3009 3010 3011 3014 3018 3018 3020 3021 3022 3023 3024 3026 3027 3030 3025 3028 3029 3027 3011 3025 3023 3027 3027 3024 3024 3034 3031 3033 3034 3033 3033 3034 3034
Wind_Speed
18 17 16 16 15 14 14 13 13 12 12 12 13 15 15 15 17 16 15 13 12 10 12 9 9 7 7 8 7 4 5 10 10 12 10 16 13 13 12 11 11 11 8 6 5
20 19 19 18 17 16 16 16 15 15 15 15 16 16 18 17 17 15 15 15 14 13 12 10 11 9 10 10 9 5 6 9 12 13 12 16 15 15 13 13 11 10 9 7 9
23 22 21 20 19 18 18 18 18 18 17 18 19 19 20 20 19 13 9 12 14 15 14 12 10 10 10 12 11 10 6 11 14 18 17 11 16 18 12 12 13 12 11 12 13
25 24 23 22 22 21 21 20 20 20 21 20 21 20 19 19 12 13 14 12 10 11 13 12 11 11 11 11 12 7 11 11 14 18 20 10 16 18 15 14 13 14 14 14 13
27 26 26 26 25 24 23 23 23 22 24 24 23 22 20 19 19 17 17 14 13 16 17 16 14 14 12 14 15 14 15 13 14 17 19 21 19 19 18 18 18 16 13 13 13
29 29 28 27 27 26 25 26 25 24 25 26 25 25 23 22 19 15 14 15 13 14 16 19 20 18 18 18 15 17 15 17 16 16 19 19 21 21 22 20 18 15 13 13 12
32 31 29 28 28 28 27 27 27 26 26 27 26 26 26 22 19 17 13 15 15 14 15 15 17 16 17 16 20 20 16 16 17 15 13 17 20 24 22 19 18 16 14 14 14
33 30 30 30 30 30 28 28 28 28 27 26 26 25 23 17 17 15 12 13 16 17 17 16 16 17 18 17 16 14 17 14 14 18 18 17 17 23 23 22 21 19 16 17 16
33 31 29 29 27 30 27 27 29 28 22 23 20 19 18 14 10 7 6 7 9 13 17 18 16 18 18 17 13 15 16 13 10 14 14 18 15 27 25 23 22 21 20 19 18
37 34 36 35 31 33 29 30 29 31 27 23 24 21 15 16 10 6 9 7 8 10 14 15 17 18 17 16 19 16 16 16 15 11 17 15 18 23 17 20 22 23 22 21 20
37 37 39 38 37 37 36 40 33 33 32 28 24 23 18 15 15 15 14 16 13 11 12 16 15 15 14 18 19 15 15 15 12 16 16 15 17 21 21 19 21 22 22 22 22
37 36 36 36 37 37 34 26 32 28 36 37 34 34 32 32 35 32 22 21 22 17 15 17 19 14 18 21 19 17 16 15 13 15 15 14 13 21 21 20 20 21 22 23 24
36 36 36 35 35 35 34 33 30 30 37 43 39 38 36 37 34 34 34 31 30 24 22 20 12 10 18 19 18 17 17 13 11 10 18 11 17 25 24 22 23 24 26 28 28
33 33 32 32 34 33 32 29 28 26 26 29 36 38 40 39 44 34 38 32 32 27 19 19 23 21 16 18 17 15 14 16 14 12 17 11 8 16 21 27 29 29 30 29 31
28 28 29 28 31 29 30 27 23 14 9 10 22 20 16 19 22 21 29 32 31 24 25 16 17 19 21 18 18 12 13 11 13 14 15 16 13 15 19 26 30 32 32 34 34
45 42 33 26 28 26 25 23 20 10 13 7 10 13 16 17 19 19 17 28 29 25 27 25 20 18 17 19 19 17 15 12 11 10 16 24 21 22 20 20 20 24 28 29 29
38 43 38 38 31 26 24 20 18 21 12 14 13 15 15 18 21 20 20 25 22 23 28 22 27 26 22 18 23 21 15 8 9 9 11 9 16 28 11 13 13 14 15 16 22
37 40 40 39 35 30 23 26 15 27 40 17 7 14 14 15 20 22 21 21 27 22 12 24 14 28 31 27 20 31 27 14 11 13 12 6 12 11 21 19 17 16 17 17 16
36 35 36 39 37 31 29 37 36 39 23 33 20 9 16 19 16 18 24 20 20 29 20 15 15 14 22 23 24 17 31 28 19 12 7 19 18 21 18 15 15 14 13 10 13
27 31 36 33 24 31 34 41 44 50 40 20 24 26 22 19 19 16 18 18 26 27 25 15 10 13 15 22 28 27 14 14 20 9 16 16 18 20 11 10 11 13 9 11 14
24 27 30 28 26 31 39 48 45 39 37 38 36 28 25 34 17 16 14 11 12 11 11 24 18 14 16 21 23 26 27 18 20 29 13 15 18 12 11 13 13 9 12 9 12
30 31 27 29 33 39 43 50 38 38 38 34 35 33 30 26 24 21 17 14 7 10 14 19 15 18 24 22 26 28 28 31 20 18 17 16 31 20 10 11 13 11 9 10 12
33 33 34 27 34 42 44 43 49 40 28 30 36 40 34 32 31 33 33 32 30 33 18 18 14 19 16 21 22 24 30 27 35 23 26 17 20 19 20 17 15 13 14 14 16
34 34 36 38 39 40 42 40 40 53 39 30 36 34 34 34 35 24 25 28 30 30 33 33 27 24 29 25 11 16 35 33 30 28 34 32 33 32 25 23 21 21 20 21 20
35 38 33 19 44 41 36 36 38 42 41 33 36 35 31 38 40 42 38 31 27 29 27 28 27 28 33 32 29 22 18 26 34 44 28 37 34 38 31 31 22 20 22 25 25
37 39 38 42 33 31 29 37 31 32 38 37 40 24 44 40 30 22 25 28 29 30 37 25 19 28 38 46 38 33 31 41 34 35 35 31 37 28 22 27 26 25 25 25 25
39 41 40 39 40 39 37 37 32 33 32 34 39 31 36 34 34 31 29 35 32 24 23 26 21 16 14 23 25 26 55 42 43 41 35 34 39 24 29 27 25 26 25 23 24
Wind_Direction
247 249 252 256 260 264 265 265 269 273 279 285 291 298 301 301 299 298 290 286 287 283 280 275 268 269 265 262 257 209 196 203 200 185 184 185 181 189 190 199 202 212 210 222 244
250 252 253 255 258 263 265 268 272 276 282 287 292 298 304 306 304 295 283 271 272 271 268 262 260 257 260 256 251 215 214 207 198 188 184 193 190 204 205 209 212 221 229 249 272
250 251 253 254 256 258 262 267 274 278 281 288 293 302 306 310 312 300 291 269 256 258 257 252 252 250 251 255 249 239 221 217 208 212 202 189 206 209 198 217 224 236 250 264 272
249 252 254 257 259 260 262 266 272 277 280 284 289 296 300 304 308 293 296 283 263 253 247 242 242 248 246 252 252 243 237 215 209 212 212 203 221 228 223 229 241 249 257 263 264
248 250 252 254 256 260 264 267 270 276 281 286 290 290 293 296 295 285 286 282 270 255 247 246 246 249 249 251 255 247 246 234 226 218 221 229 239 242 242 246 254 254 247 242 240
247 249 252 254 257 258 261 267 269 274 279 284 288 292 296 297 288 274 279 274 264 259 255 247 247 246 250 250 243 248 247 241 234 228 238 237 241 246 244 246 245 242 248 248 244
248 247 251 255 257 261 264 268 271 274 277 282 288 292 289 291 282 269 274 268 262 252 249 245 242 241 243 251 248 250 252 252 245 234 225 230 240 234 239 239 246 251 256 245 241
250 251 256 260 263 264 267 269 273 276 279 285 291 294 293 276 277 267 269 259 260 252 250 247 240 237 239 239 249 248 251 242 237 237 233 233 243 253 246 246 248 250 249 242 240
253 253 255 260 261 264 263 271 274 272 285 279 281 293 302 264 242 242 272 284 279 268 255 250 245 238 240 235 245 244 245 239 243 235 228 227 238 246 250 245 245 239 236 234 237
263 258 260 259 258 259 266 265 270 266 279 271 280 282 270 245 225 270 296 301 289 286 275 259 244 240 238 224 231 240 237 239 233 251 234 232 231 246 248 245 245 238 234 231 239
253 251 255 256 257 258 263 269 272 276 272 267 258 260 254 243 247 274 283 274 286 283 271 262 246 235 240 241 238 240 236 240 244 239 241 235 238 255 252 250 242 237 233 234 242
256 253 251 254 257 259 260 250 275 271 276 270 265 261 259 261 257 260 272 273 266 268 260 253 252 246 238 237 238 234 237 239 237 245 241 248 234 251 248 244 240 238 237 241 246
258 258 257 255 255 256 257 257 258 261 269 272 268 266 268 263 262 259 265 264 261 255 249 238 248 241 243 240 232 228 229 230 235 240 246 249 248 252 247 241 240 240 241 244 247
261 260 259 257 256 255 256 259 260 268 275 268 276 269 262 263 262 258 254 250 245 242 233 243 241 248 243 231 225 232 242 233 238 241 248 227 273 224 240 242 243 244 248 254 257
262 266 263 259 258 254 253 251 247 258 279 263 223 247 246 246 244 249 240 230 230 234 217 234 238 242 228 235 224 224 239 228 225 237 258 245 258 248 224 242 248 248 250 250 253
266 265 266 263 259 255 253 245 229 211 242 254 224 235 230 231 237 232 238 220 227 226 235 233 243 230 229 227 230 229 233 237 237 244 251 248 234 268 230 252 249 247 249 251 254
247 251 252 258 254 249 241 226 194 212 235 252 242 235 227 229 230 226 232 217 203 204 229 235 238 242 237 228 222 218 196 208 227 219 250 239 222 248 243 242 233 235 235 239 246
236 239 241 241 239 231 218 203 204 228 225 240 233 224 218 216 221 227 223 218 216 220 237 218 222 222 235 223 224 212 208 209 238 247 253 207 233 249 242 247 237 241 245 246 246
242 240 234 234 229 220 204 213 217 222 237 233 242 237 229 233 228 233 231 228 225 218 209 215 231 226 228 220 213 211 219 232 260 262 269 247 255 267 248 230 252 238 232 240 263
238 239 240 237 218 214 209 221 234 238 236 237 242 240 238 232 225 224 227 242 239 237 226 242 248 250 245 230 227 218 231 208 214 239 239 254 255 256 247 244 206 221 235 275 249
232 235 239 233 229 217 218 221 228 230 236 234 244 243 233 237 229 227 230 245 241 249 236 231 236 250 236 224 221 216 222 220 231 233 251 256 251 247 237 227 214 241 278 249 234
230 233 244 229 221 222 223 224 227 231 237 232 236 233 240 240 237 238 230 229 238 265 250 240 232 243 241 244 235 224 236 224 219 214 227 248 255 257 252 206 260 268 264 224 256
231 234 235 239 230 230 231 228 228 231 224 231 239 238 238 242 251 244 248 257 254 256 263 252 224 238 253 251 248 234 230 226 227 240 233 228 250 254 251 260 247 277 266 264 262
231 239 240 239 232 232 230 230 233 232 237 230 236 243 242 239 240 246 248 245 250 249 247 241 236 231 243 255 254 240 230 234 230 229 240 240 257 257 263 265 262 277 277 272 264
229 234 236 237 242 242 226 230 233 235 235 235 239 231 233 237 246 246 248 247 255 243 234 227 232 228 243 251 253 261 235 234 225 237 227 253 248 257 258 260 265 263 266 263 258
227 233 240 241 244 255 229 216 223 240 233 235 239 245 237 235 232 235 238 241 243 247 256 252 247 244 252 262 252 250 249 243 241 246 244 249 254 250 247 252 261 272 269 262 259
232 234 233 240 243 241 242 248 239 237 241 239 240 245 244 246 250 249 254 253 258 268 287 281 282 248 246 255 249 249 244 242 245 250 245 234 244 248 252 267 263 263 258 256 255